STARLINK-1202 (45183 NORAD) Tracking and Keplerian Element Data

This shows tracking and keplerian element data for the satellite.

Feedback or suggestion? Click here.




ElementValue
Catalog45183
NameSTARLINK-1202
Epoch Orbit768
Epoch Day94.25001157
Epoch Year2020
RAAN52.1387
Inclination53.0004
Eccentricity0.0001765
Argument of Perigee74.1205
Mean Anonmoly188.993
Mean Motion15.05607952
Decay Rate0.0002524
L11 45183U 20012F 20094.25001157 .00025240 00000-0 17439-2 0 9991
L22 45183 53.0004 52.1387 0001765 74.1205 188.9930 15.05607952 7688

Live tracking and technical data element details for STARLINK-1202 (NORAD 45183). STARLINK-1202 can be tracked NOW for your location showing map with azimuth and elevation plus other details from your city location.

Track the satellite on the map from your city or location and see movement details for azimuth, elevation, latitude, longitude, range, height, and movement on the map or in text.







IsCatalogInMostPopularTable: catalog: 45183, numindb: 7
Update: records affected: 1



GetName: 45183 STARLINK-1202

Hit Count: updated at: Tue, 07 Apr 2020 07:52:35 GMT